^^
NorthLandsweather Station Historical Data
 
Daily Summary for April 25, 2018 Units:  English    Metric   Both
Daily Weekly Monthly Yearly Custom
  Current: High: Low: Average:
Temperature: 31.7 °F 38.7 °F 30.7 °F 34.2 °F
Dew Point: 27.7 °F 30.4 °F 25.9 °F 27.5 °F
Humidity: 85% 85% 68% 76%
Wind Speed: 0.0mph 3.5mph 0.0mph 0.6mph
Wind Gust: 0.0mph 3.5mph - -
WindCalm - - SE
Pressure: 30.27 in 30.27 in 30.26 in -
Precipitation: 0.00 in      
Historical Graphs
 
 
Tabular Data for April 25, 2018
Time Temperature Dew Point Pressure Wind Wind Speed Wind Gust Humidity Rainfall Rate (Hourly) solar
00:04 38.7 °F 30.4 °F 30.26 in NNE 1.2 mph 1.2 mph 72% 0.00 in 0.0 W/m2
00:09 38.7 °F 30.1 °F 30.26 in Calm     71% 0.00 in 0.0 W/m2
00:14 38.6 °F 30.0 °F 30.26 in NNE 2.3 mph 2.3 mph 71% 0.00 in 0.0 W/m2
00:19 38.5 °F 29.6 °F 30.26 in SSE 2.3 mph 2.3 mph 70% 0.00 in 0.0 W/m2
00:24 38.5 °F 29.6 °F 30.26 in NE 3.5 mph 3.5 mph 70% 0.00 in 0.0 W/m2
00:29 38.5 °F 29.2 °F 30.27 in NE 1.2 mph 1.2 mph 69% 0.00 in 0.0 W/m2
00:34 38.4 °F 29.1 °F 30.27 in NNE 3.5 mph 3.5 mph 69% 0.00 in 0.0 W/m2
00:39 38.3 °F 29.0 °F 30.27 in NE 2.3 mph 2.3 mph 69% 0.00 in 0.0 W/m2
00:44 38.3 °F 29.0 °F 30.27 in Calm     69% 0.00 in 0.0 W/m2
00:49 38.2 °F 28.6 °F 30.27 in NNE 1.2 mph 1.2 mph 68% 0.00 in 0.0 W/m2
00:54 38.0 °F 28.4 °F 30.27 in NNE 2.3 mph 2.3 mph 68% 0.00 in 0.0 W/m2
00:59 38.0 °F 28.7 °F 30.27 in ENE 2.3 mph 2.3 mph 69% 0.00 in 0.0 W/m2
01:04 37.8 °F 28.5 °F 30.27 in Calm     69% 0.00 in 0.0 W/m2
01:09 37.6 °F 28.3 °F 30.27 in Calm     69% 0.00 in 0.0 W/m2
01:14 37.4 °F 28.2 °F 30.27 in NE 3.5 mph 3.5 mph 69% 0.00 in 0.0 W/m2
01:19 37.3 °F 28.4 °F 30.27 in Calm     70% 0.00 in 0.0 W/m2
01:24 37.3 °F 28.1 °F 30.27 in NNE 1.2 mph 1.2 mph 69% 0.00 in 0.0 W/m2
01:29 37.2 °F 28.3 °F 30.27 in WNW 2.3 mph 2.3 mph 70% 0.00 in 0.0 W/m2
01:34 37.1 °F 28.2 °F 30.27 in NNE 2.3 mph 2.3 mph 70% 0.00 in 0.0 W/m2
01:39 37.1 °F 28.2 °F 30.27 in North 3.5 mph   70% 0.00 in 0.0 W/m2
01:44 37.0 °F 28.1 °F 30.27 in WNW 1.2 mph 1.2 mph 70% 0.00 in 0.0 W/m2
01:49 37.0 °F 28.1 °F 30.27 in Calm     70% 0.00 in 0.0 W/m2
01:52 36.9 °F 28.0 °F 30.27 in NW 2.3 mph 2.3 mph 70% 0.00 in 0.0 W/m2
01:57 36.7 °F 28.2 °F 30.27 in NNE 3.0 mph 3.0 mph 71% 0.00 in 0.0 W/m2
02:02 36.7 °F 28.2 °F 30.27 in Calm     71% 0.00 in 0.0 W/m2
02:07 36.5 °F 28.0 °F 30.27 in WNW 1.0 mph 1.0 mph 71% 0.00 in 0.0 W/m2
02:12 36.4 °F 27.9 °F 30.27 in WNW 1.2 mph 1.2 mph 71% 0.00 in 0.0 W/m2
02:17 36.3 °F 28.1 °F 30.27 in Calm     72% 0.00 in 0.0 W/m2
02:22 36.2 °F 28.0 °F 30.27 in Calm     72% 0.00 in 0.0 W/m2
02:27 36.0 °F 27.8 °F 30.27 in Calm     72% 0.00 in 0.0 W/m2
02:32 36.0 °F 28.2 °F 30.27 in Calm     73% 0.00 in 0.0 W/m2
02:37 35.8 °F 27.7 °F 30.27 in Calm     72% 0.00 in 0.0 W/m2
02:43 35.7 °F 27.9 °F 30.27 in NNE 1.2 mph   73% 0.00 in 0.0 W/m2
02:48 35.7 °F 27.9 °F 30.27 in Calm     73% 0.00 in 0.0 W/m2
02:53 35.4 °F 27.6 °F 30.27 in Calm     73% 0.00 in 0.0 W/m2
02:58 35.2 °F 27.7 °F 30.27 in Calm     74% 0.00 in 0.0 W/m2
03:03 35.0 °F 27.5 °F 30.27 in Calm     74% 0.00 in 0.0 W/m2
03:08 34.7 °F 27.6 °F 30.27 in Calm     75% 0.00 in 0.0 W/m2
03:14 34.3 °F 27.5 °F 30.27 in Calm     76% 0.00 in 0.0 W/m2
03:19 34.1 °F 27.6 °F 30.27 in Calm     77% 0.00 in 0.0 W/m2
03:24 33.7 °F 27.3 °F 30.27 in North 1.2 mph   77% 0.00 in 0.0 W/m2
03:29 33.5 °F 27.4 °F 30.27 in Calm     78% 0.00 in 0.0 W/m2
03:34 33.2 °F 27.1 °F 30.26 in Calm     78% 0.00 in 0.0 W/m2
03:39 32.9 °F 27.1 °F 30.26 in Calm     79% 0.00 in 0.0 W/m2
03:44 32.6 °F 26.8 °F 30.26 in North 1.2 mph 1.2 mph 79% 0.00 in 0.0 W/m2
03:49 32.5 °F 27.0 °F 30.26 in Calm     80% 0.00 in 0.0 W/m2
03:54 32.4 °F 26.9 °F 30.27 in North 1.2 mph 1.2 mph 80% 0.00 in 0.0 W/m2
03:59 32.4 °F 26.9 °F 30.27 in Calm     80% 0.00 in 0.0 W/m2
04:04 32.3 °F 27.1 °F 30.27 in Calm     81% 0.00 in 0.0 W/m2
04:09 32.3 °F 27.1 °F 30.27 in Calm     81% 0.00 in 0.0 W/m2
04:14 32.2 °F 27.0 °F 30.27 in Calm     81% 0.00 in 0.0 W/m2
04:19 32.2 °F 26.7 °F 30.27 in Calm     80% 0.00 in 0.0 W/m2
04:24 32.0 °F 26.8 °F 30.27 in Calm     81% 0.00 in 0.0 W/m2
04:29 32.0 °F 26.8 °F 30.27 in Calm     81% 0.00 in 0.0 W/m2
04:34 32.0 °F 26.8 °F 30.27 in Calm     81% 0.00 in 0.0 W/m2
04:39 32.0 °F 26.8 °F 30.27 in Calm     81% 0.00 in 0.0 W/m2
04:44 32.2 °F 27.0 °F 30.27 in Calm     81% 0.00 in 0.0 W/m2
04:49 32.3 °F 26.8 °F 30.27 in Calm     80% 0.00 in 0.0 W/m2
04:54 32.3 °F 26.8 °F 30.27 in Calm     80% 0.00 in 0.0 W/m2
04:59 32.4 °F 26.9 °F 30.27 in Calm     80% 0.00 in 0.0 W/m2
05:04 32.4 °F 26.9 °F 30.27 in Calm     80% 0.00 in 0.0 W/m2
05:09 32.3 °F 26.8 °F 30.27 in Calm     80% 0.00 in 0.0 W/m2
05:14 32.3 °F 26.8 °F 30.27 in Calm     80% 0.00 in 0.0 W/m2
05:19 32.2 °F 26.7 °F 30.27 in Calm     80% 0.00 in 0.0 W/m2
05:24 32.0 °F 26.5 °F 30.27 in Calm     80% 0.00 in 0.0 W/m2
05:29 31.9 °F 26.4 °F 30.27 in Calm     80% 0.00 in 0.0 W/m2
05:34 31.7 °F 26.5 °F 30.27 in Calm     81% 0.00 in 0.0 W/m2
05:39 31.6 °F 26.4 °F 30.27 in Calm     81% 0.00 in 0.0 W/m2
05:44 31.5 °F 26.3 °F 30.27 in Calm     81% 0.00 in 0.0 W/m2
05:49 31.5 °F 26.3 °F 30.27 in Calm     81% 0.00 in 0.0 W/m2
05:54 31.5 °F 26.3 °F 30.27 in Calm     81% 0.00 in 0.0 W/m2
05:59 31.4 °F 26.2 °F 30.27 in Calm     81% 0.00 in 0.0 W/m2
06:04 31.3 °F 26.1 °F 30.27 in Calm     81% 0.00 in 101.7 W/m2
06:09 31.2 °F 26.0 °F 30.27 in Calm     81% 0.00 in 115.8 W/m2
06:14 31.2 °F 26.0 °F 30.27 in Calm     81% 0.00 in 128.0 W/m2
06:19 31.1 °F 26.0 °F 30.27 in Calm     81% 0.00 in 141.1 W/m2
06:24 31.0 °F 25.9 °F 30.27 in Calm     81% 0.00 in 153.2 W/m2
06:29 30.9 °F 26.1 °F 30.27 in Calm     82% 0.00 in 160.3 W/m2
06:34 30.7 °F 25.9 °F 30.27 in Calm     82% 0.00 in 163.3 W/m2
06:39 30.8 °F 26.2 °F 30.27 in Calm     83% 0.00 in 168.4 W/m2
06:44 30.8 °F 26.2 °F 30.27 in Calm     83% 0.00 in 171.4 W/m2
06:49 30.8 °F 26.2 °F 30.27 in Calm     83% 0.00 in 173.4 W/m2
06:54 30.9 °F 26.6 °F 30.27 in Calm     84% 0.00 in 178.5 W/m2
06:59 31.0 °F 26.7 °F 30.27 in Calm     84% 0.00 in 182.5 W/m2
07:04 31.3 °F 27.3 °F 30.27 in Calm     85% 0.00 in 184.5 W/m2
07:09 31.7 °F 27.7 °F 30.27 in Calm     85% 0.00 in 181.5 W/m2
Winter, Wisconsin USA
Compliments of Weather Underground - 2 mb